Regional Weather Roundup
Issued by NWS

Home | Current Version | Previous Version | Graphics & Text | Print | Product List | Glossary On
Versions: 1 2 3 4 5 6 7 8 9 10 11 12 13 14 15 16 17 18 19 20 21 22 23 24 25 26 27 28 29 30 31 32 33 34 35 36 37 38 39 40 41 42 43 44 45 46 47 48 49 50
000
ASUS45 KPSR 200910
RWRAZ

ARIZONA REGIONAL HOURLY WEATHER ROUNDUP
NATIONAL WEATHER SERVICE PHOENIX AZ
200 AM MST SUN APR 20 2014

NOTE: FAIR INDICATES FEW OR NO CLOUDS BELOW 12,000 FEET WITH NO
SIGNIFICANT WEATHER AND/OR OBSTRUCTIONS TO VISIBILITY.

AZZ001>003-036-201000-
NORTHWEST ARIZONA

CITY           SKY/WX    TMP DP  RH WIND       PRES   REMARKS
BULLHEAD CITY  CLEAR     72  37  28 SE7       29.94S
KINGMAN        CLEAR     59  38  45 SE10      30.05F
$$

AZZ004>008-015-016-018-201000-
NORTH CENTRAL ARIZONA

CITY           SKY/WX    TMP DP  RH WIND       PRES   REMARKS
GRAND CANYON   PTCLDY    31  30  96 CALM      30.19F
WILLIAMS       CLEAR     36  30  80 SE7       30.27S WCI  30
PRESCOTT       CLEAR     50  36  58 S8        30.14S
FLAGSTAFF      CLEAR     33  28  81 CALM      30.21F
PAYSON         CLEAR     50  39  66 CALM      30.16F
PAGE           MOCLDY    60  35  39 SW3       30.07R
$$

AZZ009>014-017-201000-
NORTHEAST ARIZONA

CITY           SKY/WX    TMP DP  RH WIND       PRES   REMARKS
WINSLOW        CLEAR     45  37  73 E7        30.13F
SAINT JOHNS    PTCLDY    44  36  73 S6        30.14F
WINDOW ROCK    CLOUDY    39  36  89 CALM      30.18F
SHOW LOW       CLEAR     41  34  75 S7        30.20F
$$

AZZ023-201000-
GREATER PHOENIX AREA

CITY           SKY/WX    TMP DP  RH WIND       PRES   REMARKS
PHOENIX        PTCLDY    71  42  35 E6        29.96S
BUCKEYE          N/A     64  36  34 NE6       29.97F
LUKE AFB       NOT AVBL
DEER VALLEY    PTCLDY    68  40  35 SE8       29.97S
SCOTTSDALE     CLEAR     69  41  36 SW5       30.00R
MESA-GATEWAY   CLEAR     64  41  42 E8        30.00F
$$

AZZ027-028-201000-
SOUTHWEST MARICOPA COUNTY AND PINAL COUNTY

CITY           SKY/WX    TMP DP  RH WIND       PRES   REMARKS
CASA GRANDE    CLEAR     61  39  44 CALM      30.00S
$$

AZZ503-504-507>509-201000-
SOUTHEAST ARIZONA

CITY           SKY/WX    TMP DP  RH WIND       PRES   REMARKS
TUCSON         CLEAR     60  40  47 SW5       30.07S
DAVIS-MONTHAN  CLEAR     58  41  53 S6        30.05F
NOGALES        CLEAR     50  39  66 CALM      30.09F
SIERRA VISTA   CLEAR     53  38  56 MISG      30.13F
DOUGLAS        CLEAR     44  40  85 NE5       30.12F
SAFFORD        CLEAR     52  40  63 E5        30.07S
$$

AZZ020-021-025-026-031-201000-
SOUTHWEST ARIZONA

CITY           SKY/WX    TMP DP  RH WIND       PRES   REMARKS
YUMA           CLEAR     70  40  33 S12       29.93F
$$

CAZ031-033-041-043-047-048-061-201000-
SOUTHERN CALIFORNIA

CITY           SKY/WX    TMP DP  RH WIND       PRES   REMARKS
DOWNTOWN L.A.  CLEAR     59  55  87 CALM      30.04F
L.A. AIRPORT   PTCLDY    60  54  80 CALM      30.04F
SAN DIEGO      PTCLDY    62  55  77 CALM      30.07S
BURBANK        CLEAR     60  52  74 CALM      30.04F
ONTARIO        CLEAR     59  51  75 CALM      30.04S
RIVERSIDE      CLEAR     59  51  75 S3        30.04F
PALM SPRINGS   CLEAR     73  48  41 W5        29.95F
EL CENTRO NAS  CLEAR     70  46  42 W6        29.91S
IMPERIAL       CLEAR     72  49  44 NW5       29.91S
BLYTHE         CLEAR     76  38  25 S10       29.92S
NEEDLES        CLEAR     77  38  24 CALM      29.93S
$$

NVZ020-UTZ003-201000-
SOUTHERN NEVADA-UTAH

CITY           SKY/WX    TMP DP  RH WIND       PRES   REMARKS
LAS VEGAS      CLEAR     70  32  24 SW8       29.92S
SALT LAKE CITY PTCLDY    53  38  56 SE8       30.00S
$$

NMZ009-TXZ055-201000-
NEW MEXICO-WEST TEXAS

CITY           SKY/WX    TMP DP  RH WIND       PRES   REMARKS
ALBUQUERQUE    CLOUDY    48  46  93 SE7       30.12F
EL PASO        PTCLDY    56  48  74 CALM      30.09F
$$


........................KEY........................
SKY/WX - SKY CONDITION/WEATHER
TMP    - TEMPERATURE IN FAHRENHEIT
DP     - DEW POINT IN FAHRENHEIT
RH     - RELATIVE HUMIDITY IN PERCENT
WIND   - DIRECTION AND SPEED IN MILES PER HOUR (MPH)
VRB    - VARIABLE WIND DIRECTION
PRES   - MEAN SEA LEVEL PRESSURE IN INCHES OF MERCURY
         F - FALLING PRESSURE   R - RISING PRESSURE
         S - STEADY PRESSURE
VSB    - VISIBILITY IN MILES
HX     - HEAT INDEX IN FAHRENHEIT
WCI    - WIND CHILL INDEX IN FAHRENHEIT
TC     - TEMPERATURE IN CELSIUS WHICH IS ALSO KNOWN AS
         TEMPERATURE IN CENTIGRADE
AFB    - AIR FORCE BASE
         LUKE AFB IS LUKE AIR FORCE BASE
         DAVIS-MONTHAN IS DAVIS-MONTHAN AIR FORCE BASE
NAS    - NAVAL AIR STATION
         EL CENTRO NAS IS EL CENTRO NAVAL AIR STATION
N/A    - NOT AVAILABLE



USA.gov is the U.S. government's official web portal to all federal, state and local government web resources and services.